Wind_Speed
59 58 57 57 56 55 55 54 54 53 52 52 52 52 52 52 52 52 51 50 50 48 47 46 44 41 39 40 39 38 36 35 33 31 30 29 28 27 26 25 24 25 26
64 63 63 62 60 59 59 58 58 57 56 54 54 54 53 53 53 53 53 53 52 51 50 49 47 44 42 41 41 39 38 37 35 33 31 30 28 28 27 26 25 24 24
70 68 67 66 65 64 63 62 61 60 59 58 57 56 55 55 55 54 54 54 54 53 52 51 50 48 45 43 43 42 40 39 38 36 34 32 30 28 27 26 25 24 23
77 74 72 70 69 68 67 66 65 64 63 62 61 59 58 57 57 56 55 54 54 54 54 53 52 51 49 47 45 44 42 40 40 39 37 35 33 31 29 28 27 26 25
81 79 77 75 73 71 70 70 69 68 66 66 64 63 62 61 59 59 58 57 56 55 55 55 55 54 52 50 48 47 45 43 41 40 39 38 36 34 33 31 30 29 27
83 83 81 79 78 76 74 73 72 71 70 68 68 67 65 64 63 62 61 60 59 58 57 56 56 56 55 53 51 50 48 46 43 42 41 40 39 38 37 35 34 33 32
79 84 85 83 82 80 78 77 75 74 73 72 70 69 68 67 66 64 64 63 62 61 60 59 58 58 57 56 55 53 51 49 47 44 43 41 41 41 40 39 38 37 36
64 74 82 86 86 84 82 81 79 78 76 75 74 73 71 70 68 67 66 65 64 64 63 62 61 61 60 59 58 56 55 53 50 48 46 45 44 44 43 42 41 40 39
47 56 67 77 84 87 86 85 84 82 80 78 77 76 75 73 72 71 69 68 67 66 66 65 64 64 63 62 61 60 59 57 55 52 50 49 47 46 45 44 43 42 41
39 42 49 60 70 79 85 87 87 86 85 82 81 80 79 78 77 75 73 71 70 69 68 68 67 67 66 65 64 62 61 60 58 56 54 52 50 48 46 45 44 43 42
35 36 38 43 53 63 72 81 86 88 88 87 85 84 83 82 80 80 78 76 74 73 71 70 69 69 68 67 66 64 63 61 60 59 57 55 53 51 49 47 46 44 43
34 34 33 34 39 46 55 65 73 81 86 88 88 87 87 86 84 84 82 80 79 77 75 74 72 71 71 70 68 67 65 64 63 61 59 57 56 54 53 51 50 48 46
34 33 33 33 34 36 41 49 57 65 73 81 86 88 89 89 89 88 87 85 83 81 80 78 76 75 73 72 71 70 68 67 65 64 62 60 58 57 56 55 54 52 50
36 34 33 33 33 34 35 39 44 50 58 66 74 81 85 88 90 91 91 90 89 86 84 81 79 78 77 76 74 73 72 70 69 67 65 64 62 60 59 58 56 55 53
41 38 35 34 34 34 34 35 38 42 46 52 58 66 73 80 85 89 91 92 92 91 89 85 83 80 79 78 77 76 75 73 71 70 69 67 65 64 63 62 60 58 56
44 42 40 37 36 35 35 36 37 38 40 43 47 52 58 65 72 80 86 90 93 93 92 90 87 84 82 81 80 78 77 76 74 73 71 70 68 67 66 65 63 61 59
43 44 43 42 40 39 38 37 38 38 39 41 42 45 48 52 58 65 72 80 87 91 93 92 92 89 86 84 82 80 79 77 76 75 73 71 70 68 67 65 63 62 61
41 42 43 43 43 43 41 40 40 40 40 41 42 43 45 48 51 55 60 66 73 80 86 88 91 91 89 87 85 83 81 79 78 76 74 73 71 70 69 67 66 65 63
40 40 41 42 44 45 45 43 42 41 41 41 41 42 43 44 47 50 53 57 61 66 71 77 82 85 87 87 86 85 84 83 81 78 76 74 73 72 71 70 69 68 66
39 38 38 39 41 44 45 46 44 43 42 41 41 41 41 41 42 44 47 50 53 57 60 64 69 73 77 79 81 82 84 84 83 82 79 77 76 74 73 72 71 71 70
38 37 36 36 38 40 44 46 46 44 43 42 41 41 40 39 39 40 42 44 46 50 53 54 56 60 64 67 70 73 76 78 79 79 78 78 77 75 75 74 73 72 72
38 36 34 33 34 37 40 44 46 44 44 43 42 41 40 39 38 40 41 42 43 46 48 50 52 53 55 59 61 64 67 69 73 76 76 76 76 77 76 75 75 74 73
39 37 34 32 32 33 36 40 44 44 44 44 43 43 42 40 39 40 40 42 43 45 47 48 51 52 54 56 58 59 61 65 68 72 74 75 77 77 77 78 78 78 77
43 40 36 32 31 31 33 36 39 41 43 44 44 44 44 43 41 40 41 42 43 45 47 48 50 53 55 57 58 59 60 60 61 66 72 75 78 79 81 81 81 81 81
48 44 39 33 30 30 31 33 36 38 41 44 45 45 46 45 44 43 42 43 44 46 48 50 51 51 52 54 55 58 60 60 60 61 65 69 73 76 78 79 80 81 81
52 47 40 33 28 28 29 31 33 35 39 43 45 46 47 47 46 46 45 44 45 46 47 48 50 51 51 52 54 57 58 58 57 58 60 60 63 67 69 72 73 74 75
Wind_Direction
263 261 259 257 256 253 252 250 249 248 247 246 245 243 241 241 239 237 236 236 236 235 235 236 236 235 232 233 235 232 225 219 217 217 218 219 219 220 219 219 219 220 221
261 259 257 255 254 253 252 250 249 247 246 245 245 244 242 240 239 238 236 235 235 235 235 236 236 235 233 232 234 234 227 220 216 215 216 216 217 218 219 219 219 220 220
261 258 256 254 252 251 250 249 248 247 246 244 243 243 242 241 239 238 236 235 235 234 235 236 236 236 234 232 232 234 230 224 218 215 215 215 216 216 218 219 220 220 221
261 258 255 253 251 249 248 248 247 246 245 244 243 242 241 240 240 238 237 235 235 234 234 235 236 236 235 232 231 232 232 227 222 216 215 216 217 217 219 220 221 222 223
259 257 255 253 251 249 248 246 246 245 244 244 243 242 241 240 239 238 237 235 235 234 234 234 235 236 235 233 232 231 233 231 226 221 218 217 218 220 221 222 224 225 226
257 255 254 252 250 248 247 246 245 244 243 243 242 242 241 240 239 238 237 236 235 233 233 233 234 235 235 235 233 232 232 233 231 227 222 221 221 223 224 226 227 228 230
258 254 251 250 249 248 246 245 244 243 242 242 241 240 240 240 239 238 237 237 235 234 233 233 233 234 235 235 235 233 233 233 233 232 229 227 227 227 228 230 231 232 234
262 256 252 249 247 246 245 244 243 242 241 240 240 239 238 238 238 238 237 237 236 235 233 233 233 233 234 235 236 235 235 234 233 234 233 232 231 231 232 233 234 236 237
273 262 254 250 248 246 245 244 243 242 240 239 239 238 237 236 236 236 236 236 236 235 235 233 233 233 234 234 236 236 236 236 235 234 234 234 233 233 233 234 235 237 238
286 276 264 254 249 246 245 243 243 242 240 239 239 238 237 236 235 235 235 235 235 235 235 235 234 234 234 234 235 236 236 237 237 236 236 236 235 235 234 234 236 237 238
293 285 276 265 255 249 246 244 243 242 241 240 239 239 238 237 236 235 234 234 235 235 235 235 235 235 235 235 235 235 236 237 237 237 236 236 236 236 236 236 237 238 239
294 289 282 273 264 256 250 246 244 243 242 241 240 239 239 239 238 237 235 234 234 235 235 235 236 236 236 236 236 236 236 236 237 237 237 236 237 237 237 238 239 240 241
289 286 283 277 270 262 255 250 246 244 243 243 242 241 241 240 240 240 238 237 235 235 235 235 236 236 236 237 237 237 237 237 237 237 238 237 238 238 239 240 241 242 243
284 280 277 274 271 266 259 252 247 245 244 243 243 243 243 242 242 242 241 241 239 237 236 235 235 236 237 237 237 237 237 237 237 238 239 239 239 240 240 241 242 243 243
281 278 273 269 266 263 259 255 250 246 243 242 243 243 244 244 244 244 243 243 243 241 239 237 236 236 236 237 237 238 238 238 238 238 239 240 240 241 241 242 243 243 244
280 276 272 268 264 260 257 254 251 248 245 243 242 242 243 243 244 244 245 245 244 244 242 240 238 236 236 236 237 237 238 238 238 238 238 239 240 241 242 242 243 243 244
285 277 271 266 262 259 255 253 251 248 247 245 245 244 243 243 243 243 244 244 244 244 244 242 241 239 238 237 236 237 237 238 238 238 238 238 239 240 240 241 241 242 242
293 284 275 268 262 257 254 251 249 248 247 247 246 246 246 245 245 243 242 242 242 242 243 242 242 240 239 238 237 237 236 236 237 237 237 237 237 237 238 239 240 241 241
297 290 282 273 265 258 253 250 248 247 246 247 246 247 247 247 247 244 241 240 239 238 238 239 239 239 238 237 237 236 236 236 236 236 236 236 237 236 237 237 238 239 240
302 295 286 277 269 261 255 249 245 244 244 244 244 245 246 247 245 241 239 236 234 233 232 233 234 234 234 234 234 235 235 235 235 236 236 236 236 236 236 237 238 238 238
308 301 292 281 272 264 256 250 244 241 241 240 240 240 241 241 240 237 234 231 230 229 226 226 227 228 229 229 228 230 232 232 233 233 234 235 235 236 236 236 237 237 238
315 308 298 287 275 266 258 250 244 239 238 237 236 235 235 235 234 232 230 226 224 222 219 219 218 218 220 222 222 223 225 227 228 229 229 230 231 232 233 234 235 235 236
324 314 305 293 280 268 259 252 244 237 234 232 232 231 231 230 229 228 226 222 219 215 213 214 213 213 213 212 214 217 219 222 224 224 224 225 225 227 228 229 231 232 233
328 322 311 297 283 270 260 252 245 236 230 228 227 227 227 226 225 224 223 219 215 213 212 212 211 210 209 209 211 214 216 218 222 223 223 224 224 225 226 227 229 231 233
325 320 313 301 285 271 261 253 245 235 228 225 224 223 223 223 223 222 221 219 216 214 212 211 210 208 209 209 211 212 215 216 219 222 224 225 227 228 229 230 231 233 234
323 317 308 298 284 269 258 251 245 235 227 224 222 221 221 221 221 221 221 221 219 217 215 213 213 211 210 210 210 211 213 215 218 221 223 225 228 231 233 233 235 236 238
Height
5728 5728 5728 5729 5730 5732 5734 5736 5737 5740 5742 5745 5747 5750 5753 5757 5761 5765 5770 5774 5778 5781 5784 5787 5790 5794 5797 5800 5802 5805 5807 5811 5815 5819 5823 5826 5830 5833 5836 5839 5842 5845 5848
5709 5710 5711 5712 5713 5715 5718 5720 5723 5725 5728 5731 5735 5738 5741 5744 5748 5752 5757 5762 5767 5771 5775 5778 5781 5784 5788 5791 5794 5797 5800 5804 5808 5812 5816 5821 5824 5828 5831 5835 5838 5841 5844
5688 5690 5691 5693 5695 5697 5700 5703 5706 5710 5713 5717 5720 5724 5728 5732 5736 5740 5744 5750 5755 5760 5765 5768 5772 5775 5779 5783 5786 5789 5792 5796 5800 5805 5810 5814 5818 5822 5826 5830 5833 5836 5840
5665 5667 5669 5672 5675 5678 5681 5685 5689 5693 5697 5701 5705 5709 5714 5718 5723 5727 5732 5737 5743 5748 5753 5758 5762 5766 5770 5774 5777 5781 5784 5788 5792 5797 5802 5807 5812 5816 5820 5824 5828 5831 5835
5639 5642 5645 5649 5653 5657 5661 5665 5670 5674 5679 5684 5689 5693 5698 5703 5709 5714 5719 5724 5729 5735 5741 5747 5751 5755 5760 5764 5769 5772 5776 5780 5784 5789 5794 5799 5805 5809 5814 5818 5822 5826 5829
5611 5615 5619 5624 5629 5634 5639 5644 5649 5655 5660 5666 5671 5677 5682 5688 5693 5699 5705 5710 5716 5722 5728 5734 5739 5745 5749 5754 5759 5763 5768 5772 5776 5781 5786 5791 5796 5801 5806 5811 5815 5819 5823
5582 5586 5592 5598 5604 5610 5616 5622 5628 5634 5640 5646 5653 5659 5666 5672 5678 5684 5690 5696 5702 5708 5714 5720 5726 5732 5738 5743 5749 5754 5759 5763 5768 5772 5777 5782 5788 5793 5798 5803 5807 5811 5815
5556 5558 5563 5570 5577 5584 5591 5598 5605 5612 5619 5626 5633 5640 5648 5655 5662 5667 5674 5680 5687 5693 5700 5706 5713 5719 5725 5731 5737 5743 5749 5754 5759 5764 5769 5774 5779 5784 5789 5794 5798 5803 5807
5536 5535 5537 5543 5549 5558 5566 5573 5580 5588 5597 5605 5611 5619 5628 5637 5643 5650 5657 5664 5671 5677 5685 5691 5698 5705 5711 5718 5725 5731 5738 5744 5749 5754 5759 5764 5769 5774 5779 5784 5789 5794 5798
5522 5519 5518 5520 5524 5531 5539 5548 5555 5564 5574 5583 5590 5597 5606 5615 5623 5633 5639 5647 5654 5661 5668 5676 5683 5690 5697 5704 5711 5718 5725 5732 5738 5744 5749 5754 5759 5764 5769 5774 5779 5784 5789
5512 5508 5506 5504 5506 5509 5515 5523 5531 5540 5549 5559 5568 5576 5584 5593 5602 5611 5621 5629 5636 5644 5652 5659 5667 5675 5682 5690 5697 5705 5712 5719 5726 5732 5738 5743 5749 5754 5759 5764 5769 5774 5779
5504 5499 5495 5493 5493 5494 5497 5502 5508 5516 5525 5535 5544 5554 5562 5571 5581 5590 5599 5609 5617 5626 5634 5642 5650 5659 5667 5675 5683 5691 5698 5705 5712 5719 5725 5732 5737 5743 5748 5753 5758 5763 5768
5495 5490 5486 5484 5482 5482 5483 5486 5490 5496 5503 5511 5521 5530 5540 5549 5558 5567 5576 5587 5596 5606 5615 5625 5634 5642 5650 5659 5667 5675 5683 5691 5698 5705 5712 5719 5725 5731 5736 5741 5747 5752 5757
5483 5480 5477 5474 5472 5471 5472 5473 5476 5480 5485 5491 5499 5508 5517 5527 5535 5544 5554 5564 5573 5584 5594 5607 5616 5625 5634 5642 5651 5659 5667 5676 5684 5691 5698 5705 5712 5718 5724 5729 5734 5740 5745
5468 5466 5465 5463 5462 5461 5461 5462 5464 5467 5470 5475 5481 5487 5496 5505 5513 5521 5531 5540 5551 5561 5574 5587 5597 5607 5615 5625 5633 5641 5650 5660 5669 5676 5684 5691 5698 5704 5710 5716 5721 5727 5733
5452 5450 5450 5450 5449 5449 5450 5450 5452 5454 5458 5461 5466 5471 5477 5484 5491 5499 5508 5517 5527 5538 5551 5564 5575 5587 5597 5606 5615 5624 5634 5643 5652 5660 5668 5676 5683 5689 5695 5701 5707 5713 5719
5435 5434 5433 5434 5434 5435 5437 5438 5440 5442 5445 5449 5452 5457 5462 5467 5473 5479 5486 5495 5505 5515 5528 5542 5552 5566 5576 5587 5597 5606 5616 5625 5635 5644 5652 5660 5668 5674 5680 5686 5693 5699 5705
5421 5418 5416 5416 5418 5419 5421 5424 5426 5429 5432 5435 5439 5443 5448 5452 5457 5462 5468 5475 5484 5494 5505 5518 5530 5543 5555 5567 5578 5587 5597 5607 5617 5626 5635 5644 5651 5658 5665 5672 5678 5684 5690
5408 5403 5401 5400 5400 5402 5405 5409 5412 5416 5419 5422 5426 5429 5433 5437 5441 5446 5452 5458 5466 5475 5485 5496 5507 5521 5534 5546 5556 5567 5577 5588 5598 5608 5617 5626 5634 5642 5649 5657 5663 5670 5677
5395 5390 5386 5384 5384 5385 5388 5392 5397 5401 5405 5408 5412 5416 5420 5424 5427 5432 5437 5444 5451 5459 5468 5478 5488 5501 5513 5525 5535 5546 5557 5568 5580 5590 5600 5609 5617 5625 5634 5642 5650 5655 5661
5382 5377 5373 5370 5369 5369 5371 5374 5380 5386 5390 5394 5399 5404 5408 5412 5416 5420 5425 5431 5438 5445 5454 5463 5473 5484 5495 5506 5518 5528 5539 5550 5561 5571 5581 5592 5603 5612 5617 5624 5631 5638 5645
5371 5365 5360 5357 5354 5354 5355 5357 5362 5370 5375 5380 5386 5391 5396 5400 5405 5409 5414 5421 5427 5435 5444 5452 5461 5470 5480 5492 5503 5513 5523 5533 5544 5556 5566 5574 5583 5591 5600 5608 5615 5623 5629
5361 5353 5348 5344 5341 5340 5340 5341 5346 5353 5360 5366 5372 5378 5383 5389 5394 5399 5404 5411 5417 5425 5433 5441 5450 5458 5468 5479 5491 5501 5509 5517 5528 5539 5547 5556 5564 5573 5582 5590 5597 5605 5612
5350 5342 5336 5331 5328 5326 5326 5327 5330 5338 5345 5351 5358 5364 5371 5377 5383 5388 5394 5400 5407 5415 5423 5431 5439 5448 5457 5467 5477 5488 5496 5504 5513 5521 5530 5538 5546 5555 5564 5572 5580 5588 5594
5338 5329 5322 5317 5314 5312 5312 5313 5316 5323 5330 5337 5344 5351 5358 5365 5371 5378 5384 5390 5397 5404 5412 5420 5429 5438 5447 5457 5466 5475 5484 5492 5499 5506 5514 5523 5531 5539 5546 5554 5562 5570 5577
5322 5312 5305 5301 5299 5299 5299 5300 5303 5309 5316 5323 5330 5337 5345 5352 5359 5366 5373 5380 5387 5394 5402 5410 5419 5427 5436 5445 5454 5462 5471 5480 5487 5494 5502 5510 5517 5524 5531 5539 5547 5554 5561